| time (UTC) | temp F | wind direction | speed knots | gust knots | rain 1hr in | rain 24hr in | rain mn in | humidity % | barometer mb |
| 20260506224928 | 62 | 23 | 0.0 | 0.0 | 0.01 | 0.01 | 0.00 | 70 | 1005.5 |
| 20260506223913 | 63 | 27 | 0.0 | 0.0 | 0.01 | 0.01 | 0.00 | 69 | 1005.5 |
| 20260506222904 | 62 | 203 | 0.0 | 0.0 | 0.00 | 0.00 | 0.00 | 68 | 1005.4 |
| 20260506221851 | 62 | 216 | 2.6 | 2.6 | 0.00 | 0.00 | 0.00 | 71 | 1005.9 |
| 20260506220836 | 61 | 204 | 0.0 | 0.0 | 0.00 | 0.00 | 0.00 | 75 | 1005.1 |
| 20260506215823 | 62 | 202 | 0.0 | 0.0 | 0.00 | 0.00 | 0.00 | 73 | 1005.0 |
| 20260506214823 | 62 | 202 | 0.0 | 0.0 | 0.00 | 0.00 | 0.00 | 71 | 1005.0 |
| 20260506213811 | 64 | 214 | 0.0 | 0.0 | 0.00 | 0.00 | 0.00 | 64 | 1005.2 |
| 20260506212758 | 64 | 198 | 3.5 | 3.5 | 0.00 | 0.00 | 0.00 | 62 | 1005.3 |
| 20260506211759 | 64 | 206 | 0.0 | 0.0 | 0.00 | 0.00 | 0.00 | 62 | 1005.0 |
| 20260506210746 | 64 | 193 | 0.9 | 0.9 | 0.00 | 0.00 | 0.00 | 62 | 1005.2 |
| 20260506205746 | 63 | 206 | 0.9 | 0.9 | 0.00 | 0.00 | 0.00 | 62 | 1005.1 |
| 20260506204733 | 62 | 204 | 0.0 | 0.0 | 0.00 | 0.00 | 0.00 | 66 | 1005.2 |
| 20260506203721 | 63 | 202 | 0.9 | 0.9 | 0.00 | 0.00 | 0.00 | 67 | 1005.1 |
| 20260506202710 | 62 | 204 | 0.0 | 0.0 | 0.00 | 0.00 | 0.00 | 68 | 1005.1 |
| 20260506201708 | 63 | 204 | 0.0 | 0.0 | 0.00 | 0.00 | 0.00 | 71 | 1005.1 |
| 20260506200702 | 64 | 221 | 0.0 | 0.0 | 0.00 | 0.00 | 0.00 | 69 | 1005.1 |
| 20260506194643 | 64 | 288 | 0.0 | 0.0 | 0.00 | 0.00 | 0.00 | 67 | 1005.1 |
| 20260506193631 | 65 | 292 | 0.0 | 0.0 | 0.00 | 0.00 | 0.00 | 66 | 1005.1 |
| 20260506192631 | 66 | 292 | 0.0 | 0.0 | 0.00 | 0.00 | 0.00 | 65 | 1005.1 |
| 20260506191618 | 66 | 282 | 0.0 | 0.0 | 0.00 | 0.00 | 0.00 | 62 | 1005.1 |
| 20260506190618 | 67 | 282 | 0.0 | 0.0 | 0.00 | 0.00 | 0.00 | 61 | 1005.0 |
| 20260506185607 | 67 | 282 | 0.0 | 0.0 | 0.00 | 0.00 | 0.00 | 60 | 1004.9 |
| 20260506184606 | 67 | 209 | 0.0 | 0.0 | 0.00 | 0.00 | 0.00 | 60 | 1004.8 |
| 20260506183555 | 68 | 209 | 0.0 | 0.0 | 0.00 | 0.00 | 0.00 | 58 | 1004.7 |
| 20260506182553 | 68 | 356 | 0.0 | 0.0 | 0.00 | 0.00 | 0.00 | 57 | 1004.6 |
| 20260506181541 | 69 | 356 | 0.0 | 0.0 | 0.00 | 0.00 | 0.00 | 55 | 1004.4 |
| 20260506180535 | 70 | 356 | 0.0 | 0.0 | 0.00 | 0.00 | 0.00 | 53 | 1004.4 |
| 20260506173331 | 72 | 356 | 0.0 | 0.0 | 0.00 | 0.00 | 0.00 | 46 | 1004.4 |
| 20260506172248 | 73 | 205 | 0.0 | 0.0 | 0.00 | 0.00 | 0.00 | 46 | 1004.4 |
| 20260506171200 | 73 | 176 | 0.0 | 0.0 | 0.00 | 0.00 | 0.00 | 45 | 1004.3 |
| 20260506170125 | 74 | 48 | 0.0 | 0.0 | 0.00 | 0.00 | 0.00 | 44 | 1004.4 |
| 20260506165048 | 73 | 208 | 0.9 | 0.9 | 0.00 | 0.00 | 0.00 | 45 | 1004.4 |
| 20260506164041 | 74 | 180 | 0.9 | 0.9 | 0.00 | 0.00 | 0.00 | 44 | 1004.4 |
| 20260506163041 | 74 | 198 | 0.9 | 0.9 | 0.00 | 0.00 | 0.00 | 44 | 1004.3 |
| 20260506162029 | 74 | 180 | 1.7 | 1.7 | 0.00 | 0.00 | 0.00 | 44 | 1004.4 |
| 20260506160003 | 75 | 189 | 1.7 | 1.7 | 0.00 | 0.00 | 0.00 | 42 | 1004.4 |
| 20260506155003 | 75 | 180 | 1.7 | 1.7 | 0.00 | 0.00 | 0.00 | 40 | 1004.3 |
| 20260506153951 | 76 | 183 | 2.6 | 2.6 | 0.00 | 0.00 | 0.00 | 40 | 1004.4 |
| 20260506152951 | 75 | 192 | 3.5 | 3.5 | 0.00 | 0.00 | 0.00 | 39 | 1004.4 |
| 20260506151951 | 76 | 198 | 1.7 | 1.7 | 0.00 | 0.00 | 0.00 | 39 | 1004.4 |
| 20260506150951 | 77 | 31 | 3.5 | 3.5 | 0.00 | 0.00 | 0.00 | 38 | 1004.3 |
| 20260506145939 | 76 | 192 | 4.3 | 4.3 | 0.00 | 0.00 | 0.00 | 40 | 1004.4 |
| 20260506144926 | 76 | 200 | 6.1 | 7.0 | 0.00 | 0.00 | 0.00 | 40 | 1004.5 |
| 20260506143926 | 75 | 176 | 4.3 | 5.2 | 0.00 | 0.00 | 0.00 | 40 | 1004.5 |
| 20260506142913 | 76 | 195 | 0.9 | 0.9 | 0.00 | 0.00 | 0.00 | 40 | 1004.5 |
| 20260506141914 | 76 | 198 | 4.3 | 4.3 | 0.00 | 0.00 | 0.00 | 39 | 1004.6 |
| 20260506140901 | 75 | 194 | 6.1 | 7.8 | 0.00 | 0.00 | 0.00 | 40 | 1004.6 |
| 20260506135900 | 76 | 176 | 2.6 | 3.5 | 0.00 | 0.00 | 0.00 | 39 | 1004.6 |
| 20260506134848 | 76 | 204 | 3.5 | 3.5 | 0.00 | 0.00 | 0.00 | 39 | 1004.6 |
| 20260506133836 | 77 | 180 | 4.3 | 5.2 | 0.00 | 0.00 | 0.00 | 40 | 1004.6 |
| 20260506132829 | 73 | 187 | 0.9 | 0.9 | 0.00 | 0.00 | 0.00 | 48 | 1005.0 |
| 20260506111153 | 72 | 174 | 4.3 | 5.2 | 0.00 | 0.00 | 0.00 | 48 | 1004.9 |
| 20260506110118 | 72 | 167 | 1.7 | 1.7 | 0.00 | 0.00 | 0.00 | 49 | 1004.9 |
| 20260506105117 | 74 | 189 | 3.5 | 3.5 | 0.00 | 0.00 | 0.00 | 46 | 1004.9 |
| 20260506104116 | 72 | 271 | 3.5 | 3.5 | 0.00 | 0.00 | 0.00 | 47 | 1005.0 |
| 20260506103025 | 72 | 198 | 3.5 | 3.5 | 0.00 | 0.00 | 0.00 | 48 | 1004.8 |
| 20260506102006 | 72 | 183 | 8.7 | 8.7 | 0.00 | 0.00 | 0.00 | 49 | 1004.8 |
| 20260506100914 | 72 | 186 | 1.7 | 1.7 | 0.00 | 0.00 | 0.00 | 48 | 1004.8 |
| 20260506095913 | 71 | 174 | 2.6 | 2.6 | 0.00 | 0.00 | 0.00 | 50 | 1004.7 |
| 20260506094908 | 71 | 211 | 1.7 | 1.7 | 0.00 | 0.00 | 0.00 | 51 | 1004.8 |
| 20260506092853 | 70 | 188 | 0.9 | 0.9 | 0.00 | 0.00 | 0.00 | 52 | 1004.7 |
| 20260506091848 | 70 | 188 | 4.3 | 4.3 | 0.00 | 0.00 | 0.00 | 53 | 1004.8 |
| 20260506090849 | 69 | 170 | 5.2 | 5.2 | 0.00 | 0.00 | 0.00 | 53 | 1004.7 |
| 20260506085836 | 69 | 197 | 0.9 | 0.9 | 0.00 | 0.00 | 0.00 | 55 | 1004.6 |
| 20260506084824 | 68 | 198 | 2.6 | 2.6 | 0.00 | 0.00 | 0.00 | 55 | 1004.7 |
| 20260506083824 | 68 | 187 | 3.5 | 3.5 | 0.00 | 0.00 | 0.00 | 54 | 1004.7 |
| 20260506082815 | 68 | 169 | 4.3 | 4.3 | 0.00 | 0.00 | 0.00 | 54 | 1004.7 |
| 20260506080804 | 67 | 169 | 3.5 | 3.5 | 0.00 | 0.00 | 0.00 | 55 | 1004.5 |
| 20260506060516 | 63 | 185 | 2.6 | 2.6 | 0.00 | 0.00 | 0.00 | 58 | 1004.4 |
| 20260506050450 | 55 | 180 | 1.7 | 1.7 | 0.00 | 0.00 | 0.00 | 65 | 1004.6 |
| 20260506044438 | 52 | 210 | 0.0 | 0.0 | 0.00 | 0.00 | 0.00 | 71 | 1004.6 |
| 20260506043425 | 50 | 222 | 0.0 | 0.0 | 0.00 | 0.00 | 0.00 | 75 | 1004.6 |
| 20260506042425 | 50 | 240 | 0.0 | 0.0 | 0.00 | 0.00 | 0.00 | 76 | 1004.6 |
| 20260506041423 | 49 | 240 | 0.0 | 0.0 | 0.00 | 0.00 | 0.00 | 77 | 1004.6 |
| 20260506040401 | 49 | 240 | 0.0 | 0.0 | 0.00 | 0.00 | 0.00 | 75 | 1004.5 |
| 20260506035348 | 48 | 300 | 0.0 | 0.0 | 0.00 | 0.00 | 0.00 | 76 | 1004.5 |
| 20260506034339 | 48 | 312 | 0.0 | 0.0 | 0.00 | 0.00 | 0.00 | 77 | 1004.4 |
| 20260506033336 | 48 | 312 | 0.0 | 0.0 | 0.00 | 0.00 | 0.00 | 77 | 1004.4 |
| 20260506032323 | 48 | 306 | 0.0 | 0.0 | 0.00 | 0.00 | 0.00 | 77 | 1004.5 |
| 20260506031323 | 48 | 306 | 0.0 | 0.0 | 0.00 | 0.00 | 0.00 | 77 | 1004.5 |
| 20260506030310 | 48 | 306 | 0.0 | 0.0 | 0.00 | 0.00 | 0.00 | 76 | 1004.6 |
| 20260506025310 | 48 | 306 | 0.0 | 0.0 | 0.00 | 0.00 | 0.00 | 75 | 1004.7 |
| 20260506024258 | 49 | 306 | 0.0 | 0.0 | 0.00 | 0.00 | 0.00 | 74 | 1004.7 |
| 20260506023246 | 49 | 312 | 0.0 | 0.0 | 0.00 | 0.00 | 0.00 | 74 | 1004.7 |
| 20260506022233 | 49 | 258 | 0.0 | 0.0 | 0.00 | 0.00 | 0.00 | 73 | 1004.7 |
| 20260506021220 | 49 | 258 | 0.0 | 0.0 | 0.00 | 0.00 | 0.00 | 74 | 1004.8 |
| 20260506020209 | 53 | 216 | 0.0 | 0.0 | 0.00 | 0.00 | 0.00 | 66 | 1005.2 |
| 20260505234347 | 53 | 216 | 0.0 | 0.0 | 0.00 | 0.00 | 0.00 | 65 | 1005.2 |
| 20260505233336 | 54 | 218 | 0.9 | 0.9 | 0.00 | 0.00 | 0.00 | 63 | 1005.3 |
| 20260505232335 | 55 | 218 | 0.0 | 0.0 | 0.00 | 0.00 | 0.00 | 62 | 1005.2 |
| 20260505231323 | 56 | 224 | 0.0 | 0.0 | 0.00 | 0.00 | 0.00 | 59 | 1005.1 |
| 20260505230323 | 56 | 224 | 0.0 | 0.0 | 0.00 | 0.00 | 0.00 | 57 | 1005.2 |
| 20260505225312 | 56 | 224 | 0.0 | 0.0 | 0.00 | 0.00 | 0.00 | 57 | 1005.3 |